Year,Month,Day,Hour,Minute,Value (Times are PST for temperature in C)
2018,08,10,00,00,18.10
2018,08,10,00,01,18.10
2018,08,10,00,02,18.10
2018,08,10,00,03,18.00
2018,08,10,00,04,18.00
2018,08,10,00,05,18.00
2018,08,10,00,06,17.90
2018,08,10,00,07,17.90
2018,08,10,00,08,17.90
2018,08,10,00,09,17.80
2018,08,10,00,10,17.90
2018,08,10,00,11,17.90
2018,08,10,00,12,17.90
2018,08,10,00,13,17.90
2018,08,10,00,14,17.90
2018,08,10,00,15,17.90
2018,08,10,00,16,17.90
2018,08,10,00,17,17.80
2018,08,10,00,18,17.80
2018,08,10,00,19,17.80
2018,08,10,00,20,17.80
2018,08,10,00,21,17.80
2018,08,10,00,22,17.80
2018,08,10,00,23,17.80
2018,08,10,00,24,17.70
2018,08,10,00,25,17.70
2018,08,10,00,26,17.70
2018,08,10,00,27,17.70
2018,08,10,00,28,17.70
2018,08,10,00,29,17.70
2018,08,10,00,30,17.70
2018,08,10,00,31,17.70
2018,08,10,00,32,17.70
2018,08,10,00,33,17.70
2018,08,10,00,34,17.70
2018,08,10,00,35,17.70
2018,08,10,00,36,17.70
2018,08,10,00,37,17.70
2018,08,10,00,38,17.70
2018,08,10,00,39,17.70
2018,08,10,00,40,17.70
2018,08,10,00,41,17.70
2018,08,10,00,42,17.70
2018,08,10,00,43,17.70
2018,08,10,00,44,17.70
2018,08,10,00,45,17.60
2018,08,10,00,46,17.60
2018,08,10,00,47,17.60
2018,08,10,00,48,17.60
2018,08,10,00,49,17.60
2018,08,10,00,50,17.60
2018,08,10,00,51,17.50
2018,08,10,00,52,17.50
2018,08,10,00,53,17.50
2018,08,10,00,54,17.40
2018,08,10,00,55,17.40
2018,08,10,00,56,17.40
2018,08,10,00,57,17.40
2018,08,10,00,58,17.40
2018,08,10,00,59,17.40
2018,08,10,01,00,17.40
2018,08,10,01,01,17.40
2018,08,10,01,02,17.40
2018,08,10,01,03,17.40
2018,08,10,01,04,17.40
2018,08,10,01,05,17.40
2018,08,10,01,06,17.40
2018,08,10,01,07,17.40
2018,08,10,01,08,17.30
2018,08,10,01,09,17.30
2018,08,10,01,10,17.30
2018,08,10,01,11,17.30
2018,08,10,01,12,17.30
2018,08,10,01,13,17.30
2018,08,10,01,14,17.30
2018,08,10,01,15,17.30
2018,08,10,01,16,17.30
2018,08,10,01,17,17.30
2018,08,10,01,18,17.30
2018,08,10,01,19,17.30
2018,08,10,01,20,17.30
2018,08,10,01,21,17.30
2018,08,10,01,22,17.30
2018,08,10,01,23,17.30
2018,08,10,01,24,17.30
2018,08,10,01,25,17.30
2018,08,10,01,26,17.20
2018,08,10,01,27,17.20
2018,08,10,01,28,17.20
2018,08,10,01,29,17.10
2018,08,10,01,30,17.10
2018,08,10,01,31,17.00
2018,08,10,01,32,17.00
2018,08,10,01,33,16.90
2018,08,10,01,34,16.90
2018,08,10,01,35,16.90
2018,08,10,01,36,16.90
2018,08,10,01,37,16.90
2018,08,10,01,38,16.80
2018,08,10,01,39,16.80
2018,08,10,01,40,16.80
2018,08,10,01,41,16.80
2018,08,10,01,42,16.80
2018,08,10,01,43,16.80
2018,08,10,01,44,16.80
2018,08,10,01,45,16.80
2018,08,10,01,46,16.80
2018,08,10,01,47,16.80
2018,08,10,01,48,16.80
2018,08,10,01,49,16.80
2018,08,10,01,50,16.80
2018,08,10,01,51,16.80
2018,08,10,01,52,16.80
2018,08,10,01,53,16.80
2018,08,10,01,54,16.80
2018,08,10,01,55,16.80
2018,08,10,01,56,16.70
2018,08,10,01,57,16.70
2018,08,10,01,58,16.70
2018,08,10,01,59,16.70
2018,08,10,02,00,16.70
2018,08,10,02,01,16.70
2018,08,10,02,02,16.70
2018,08,10,02,03,16.70
2018,08,10,02,04,16.70
2018,08,10,02,05,16.70
2018,08,10,02,06,16.70
2018,08,10,02,07,16.70
2018,08,10,02,08,16.70
2018,08,10,02,09,16.70
2018,08,10,02,10,16.70
2018,08,10,02,11,16.70
2018,08,10,02,12,16.60
2018,08,10,02,13,16.60
2018,08,10,02,14,16.60
2018,08,10,02,15,16.60
2018,08,10,02,16,16.60
2018,08,10,02,17,16.60
2018,08,10,02,18,16.60
2018,08,10,02,19,16.60
2018,08,10,02,20,16.60
2018,08,10,02,21,16.60
2018,08,10,02,22,16.60
2018,08,10,02,23,16.50
2018,08,10,02,24,16.50
2018,08,10,02,25,16.50
2018,08,10,02,26,16.50
2018,08,10,02,27,16.50
2018,08,10,02,28,16.50
2018,08,10,02,29,16.50
2018,08,10,02,30,16.40
2018,08,10,02,31,16.40
2018,08,10,02,32,16.40
2018,08,10,02,33,16.40
2018,08,10,02,34,16.40
2018,08,10,02,35,16.40
2018,08,10,02,36,16.40
2018,08,10,02,37,16.40
2018,08,10,02,38,16.40
2018,08,10,02,39,16.40
2018,08,10,02,40,16.40
2018,08,10,02,41,16.40
2018,08,10,02,42,16.40
2018,08,10,02,43,16.40
2018,08,10,02,44,16.50
2018,08,10,02,45,16.50
2018,08,10,02,46,16.50
2018,08,10,02,47,16.50
2018,08,10,02,48,16.60
2018,08,10,02,49,16.60
2018,08,10,02,50,16.60
2018,08,10,02,51,16.60
2018,08,10,02,52,16.60
2018,08,10,02,53,16.60
2018,08,10,02,54,16.60
2018,08,10,02,55,16.60
2018,08,10,02,56,16.60
2018,08,10,02,57,16.60
2018,08,10,02,58,16.60
2018,08,10,02,59,16.70
2018,08,10,03,00,16.70
2018,08,10,03,01,16.70
2018,08,10,03,02,16.70
2018,08,10,03,03,16.70
2018,08,10,03,04,16.80
2018,08,10,03,05,16.80
2018,08,10,03,06,16.80
2018,08,10,03,07,16.90
2018,08,10,03,08,16.90
2018,08,10,03,09,16.90
2018,08,10,03,10,16.90
2018,08,10,03,11,16.90
2018,08,10,03,12,16.90
2018,08,10,03,13,17.00
2018,08,10,03,14,17.00
2018,08,10,03,15,17.00
2018,08,10,03,16,17.00
2018,08,10,03,17,17.00
2018,08,10,03,18,17.00
2018,08,10,03,19,17.00
2018,08,10,03,20,17.10
2018,08,10,03,21,17.10
2018,08,10,03,22,17.10
2018,08,10,03,23,17.10
2018,08,10,03,24,17.10
2018,08,10,03,25,17.10
2018,08,10,03,26,17.10
2018,08,10,03,27,17.10
2018,08,10,03,28,17.00
2018,08,10,03,29,17.00
2018,08,10,03,30,17.00
2018,08,10,03,31,17.00
2018,08,10,03,32,17.00
2018,08,10,03,33,17.00
2018,08,10,03,34,17.00
2018,08,10,03,35,17.10
2018,08,10,03,36,17.10
2018,08,10,03,37,17.10
2018,08,10,03,38,17.10
2018,08,10,03,39,17.10
2018,08,10,03,40,17.10
2018,08,10,03,41,17.10
2018,08,10,03,42,17.00
2018,08,10,03,43,17.00
2018,08,10,03,44,17.00
2018,08,10,03,45,17.00
2018,08,10,03,46,17.00
2018,08,10,03,47,17.00
2018,08,10,03,48,17.00
2018,08,10,03,49,16.90
2018,08,10,03,50,16.90
2018,08,10,03,51,16.90
2018,08,10,03,52,16.90
2018,08,10,03,53,16.90
2018,08,10,03,54,16.90
2018,08,10,03,55,16.90
2018,08,10,03,56,16.90
2018,08,10,03,57,16.90
2018,08,10,03,58,16.90
2018,08,10,03,59,16.90
2018,08,10,04,00,16.90
2018,08,10,04,01,16.90
2018,08,10,04,02,16.90
2018,08,10,04,03,16.80
2018,08,10,04,04,16.80
2018,08,10,04,05,16.80
2018,08,10,04,06,16.80
2018,08,10,04,07,16.70
2018,08,10,04,08,16.70
2018,08,10,04,09,16.70
2018,08,10,04,10,16.60
2018,08,10,04,11,16.60
2018,08,10,04,12,16.50
2018,08,10,04,13,16.50
2018,08,10,04,14,16.50
2018,08,10,04,15,16.40
2018,08,10,04,16,16.40
2018,08,10,04,17,16.40
2018,08,10,04,18,16.40
2018,08,10,04,19,16.30
2018,08,10,04,20,16.30
2018,08,10,04,21,16.30
2018,08,10,04,22,16.30
2018,08,10,04,23,16.30
2018,08,10,04,24,16.30
2018,08,10,04,25,16.20
2018,08,10,04,26,16.20
2018,08,10,04,27,16.20
2018,08,10,04,28,16.20
2018,08,10,04,29,16.20
2018,08,10,04,30,16.20
2018,08,10,04,31,16.20
2018,08,10,04,32,16.20
2018,08,10,04,33,16.20
2018,08,10,04,34,16.20
2018,08,10,04,35,16.30
2018,08,10,04,36,16.30
2018,08,10,04,37,16.30
2018,08,10,04,38,16.30
2018,08,10,04,39,16.30
2018,08,10,04,40,16.40
2018,08,10,04,41,16.40
2018,08,10,04,42,16.40
2018,08,10,04,43,16.40
2018,08,10,04,44,16.40
2018,08,10,04,45,16.40
2018,08,10,04,46,16.40
2018,08,10,04,47,16.40
2018,08,10,04,48,16.40
2018,08,10,04,49,16.40
2018,08,10,04,50,16.40
2018,08,10,04,51,16.40
2018,08,10,04,52,16.40
2018,08,10,04,53,16.30
2018,08,10,04,54,16.30
2018,08,10,04,55,16.30
2018,08,10,04,56,16.30
2018,08,10,04,57,16.30
2018,08,10,04,58,16.30
2018,08,10,04,59,16.30
2018,08,10,05,00,16.30
2018,08,10,05,01,16.30
2018,08,10,05,02,16.30
2018,08,10,05,03,16.30
2018,08,10,05,04,16.30
2018,08,10,05,05,16.30
2018,08,10,05,06,16.30
2018,08,10,05,07,16.20
2018,08,10,05,08,16.20
2018,08,10,05,09,16.20
2018,08,10,05,10,16.20
2018,08,10,05,11,16.20
2018,08,10,05,12,16.20
2018,08,10,05,13,16.20
2018,08,10,05,14,16.10
2018,08,10,05,15,16.10
2018,08,10,05,16,16.10
2018,08,10,05,17,16.10
2018,08,10,05,18,16.10
2018,08,10,05,19,16.10
2018,08,10,05,20,16.10
2018,08,10,05,21,16.10
2018,08,10,05,22,16.10
2018,08,10,05,23,16.10
2018,08,10,05,24,16.10
2018,08,10,05,25,16.10
2018,08,10,05,26,16.10
2018,08,10,05,27,16.10
2018,08,10,05,28,16.10
2018,08,10,05,29,16.10
2018,08,10,05,30,16.10
2018,08,10,05,31,16.10
2018,08,10,05,32,16.10
2018,08,10,05,33,16.10
2018,08,10,05,34,16.00
2018,08,10,05,35,16.00
2018,08,10,05,36,16.00
2018,08,10,05,37,16.00
2018,08,10,05,38,16.00
2018,08,10,05,39,15.90
2018,08,10,05,40,15.90
2018,08,10,05,41,15.90
2018,08,10,05,42,15.90
2018,08,10,05,43,15.90
2018,08,10,05,44,15.90
2018,08,10,05,45,15.80
2018,08,10,05,46,15.80
2018,08,10,05,47,15.80
2018,08,10,05,48,15.80
2018,08,10,05,49,15.80
2018,08,10,05,50,15.80
2018,08,10,05,51,15.80
2018,08,10,05,52,15.80
2018,08,10,05,53,15.80
2018,08,10,05,54,15.80
2018,08,10,05,55,15.80
2018,08,10,05,56,15.80
2018,08,10,05,57,15.80
2018,08,10,05,58,15.80
2018,08,10,05,59,15.70
2018,08,10,06,00,15.70
2018,08,10,06,01,15.70
2018,08,10,06,02,15.70
2018,08,10,06,03,15.70
2018,08,10,06,04,15.70
2018,08,10,06,05,15.70
2018,08,10,06,06,15.70
2018,08,10,06,07,15.70
2018,08,10,06,08,15.70
2018,08,10,06,09,15.70
2018,08,10,06,10,15.70
2018,08,10,06,11,15.70
2018,08,10,06,12,15.70
2018,08,10,06,13,15.70
2018,08,10,06,14,15.70
2018,08,10,06,15,15.70
2018,08,10,06,16,15.70
2018,08,10,06,17,15.70
2018,08,10,06,18,15.70
2018,08,10,06,19,15.70
2018,08,10,06,20,15.70
2018,08,10,06,21,15.70
2018,08,10,06,22,15.70
2018,08,10,06,23,15.70
2018,08,10,06,24,15.70
2018,08,10,06,25,15.70
2018,08,10,06,26,15.70
2018,08,10,06,27,15.70
2018,08,10,06,28,15.70
2018,08,10,06,29,15.60
2018,08,10,06,30,15.60
2018,08,10,06,31,15.60
2018,08,10,06,32,15.60
2018,08,10,06,33,15.60
2018,08,10,06,34,15.60
2018,08,10,06,35,15.60
2018,08,10,06,36,15.60
2018,08,10,06,37,15.60
2018,08,10,06,38,15.60
2018,08,10,06,39,15.60
2018,08,10,06,40,15.50
2018,08,10,06,41,15.50
2018,08,10,06,42,15.50
2018,08,10,06,43,15.50
2018,08,10,06,44,15.50
2018,08,10,06,45,15.50
2018,08,10,06,46,15.50
2018,08,10,06,47,15.50
2018,08,10,06,48,15.50
2018,08,10,06,49,15.50
2018,08,10,06,50,15.50
2018,08,10,06,51,15.50
2018,08,10,06,52,15.60
2018,08,10,06,53,15.60
2018,08,10,06,54,15.60
2018,08,10,06,55,15.60
2018,08,10,06,56,15.60
2018,08,10,06,57,15.60
2018,08,10,06,58,15.70
2018,08,10,06,59,15.70
2018,08,10,07,00,15.70
2018,08,10,07,01,15.70
2018,08,10,07,02,15.70
2018,08,10,07,03,15.70
2018,08,10,07,04,15.70
2018,08,10,07,05,15.70
2018,08,10,07,06,15.80
2018,08,10,07,07,15.80
2018,08,10,07,08,15.80
2018,08,10,07,09,15.80
2018,08,10,07,10,15.80
2018,08,10,07,11,15.80
2018,08,10,07,12,15.80
2018,08,10,07,13,15.80
2018,08,10,07,14,15.80
2018,08,10,07,15,15.80
2018,08,10,07,16,15.80
2018,08,10,07,17,15.80
2018,08,10,07,18,15.80
2018,08,10,07,19,15.90
2018,08,10,07,20,15.90
2018,08,10,07,21,15.90
2018,08,10,07,22,15.90
2018,08,10,07,23,15.90
2018,08,10,07,24,16.00
2018,08,10,07,25,16.00
2018,08,10,07,26,16.00
2018,08,10,07,27,16.10
2018,08,10,07,28,16.10
2018,08,10,07,29,16.10
2018,08,10,07,30,16.10
2018,08,10,07,31,16.20
2018,08,10,07,32,16.20
2018,08,10,07,33,16.20
2018,08,10,07,34,16.30
2018,08,10,07,35,16.30
2018,08,10,07,36,16.40
2018,08,10,07,37,16.40
2018,08,10,07,38,16.40
2018,08,10,07,39,16.50
2018,08,10,07,40,16.50
2018,08,10,07,41,16.60
2018,08,10,07,42,16.60
2018,08,10,07,43,16.60
2018,08,10,07,44,16.70
2018,08,10,07,45,16.70
2018,08,10,07,46,16.70
2018,08,10,07,47,16.80
2018,08,10,07,48,16.90
2018,08,10,07,49,17.00
2018,08,10,07,50,17.00
2018,08,10,07,51,17.10
2018,08,10,07,52,17.20
2018,08,10,07,53,17.20
2018,08,10,07,54,17.30
2018,08,10,07,55,17.30
2018,08,10,07,56,17.40
2018,08,10,07,57,17.40
2018,08,10,07,58,17.40
2018,08,10,07,59,17.40
2018,08,10,08,00,17.50
2018,08,10,08,01,17.50
2018,08,10,08,02,17.50
2018,08,10,08,03,17.60
2018,08,10,08,04,17.60
2018,08,10,08,05,17.70
2018,08,10,08,06,17.70
2018,08,10,08,07,17.70
2018,08,10,08,08,17.80
2018,08,10,08,09,17.80
2018,08,10,08,10,17.90
2018,08,10,08,11,18.00
2018,08,10,08,12,18.10
2018,08,10,08,13,18.20
2018,08,10,08,14,18.30
2018,08,10,08,15,18.30
2018,08,10,08,16,18.40
2018,08,10,08,17,18.50
2018,08,10,08,18,18.50
2018,08,10,08,19,18.60
2018,08,10,08,20,18.70
2018,08,10,08,21,18.80
2018,08,10,08,22,18.90
2018,08,10,08,23,19.00
2018,08,10,08,24,19.10
2018,08,10,08,25,19.30
2018,08,10,08,26,19.40
2018,08,10,08,27,19.50
2018,08,10,08,28,19.70
2018,08,10,08,29,19.80
2018,08,10,08,30,19.90
2018,08,10,08,31,20.10
2018,08,10,08,32,20.20
2018,08,10,08,33,20.30
2018,08,10,08,34,20.40
2018,08,10,08,35,20.50
2018,08,10,08,36,20.50
2018,08,10,08,37,20.50
2018,08,10,08,38,20.50
2018,08,10,08,39,20.80
2018,08,10,08,40,20.90
2018,08,10,08,41,21.00
2018,08,10,08,42,21.10
2018,08,10,08,43,21.10
2018,08,10,08,44,21.10
2018,08,10,08,45,21.20
2018,08,10,08,46,21.20
2018,08,10,08,47,21.20
2018,08,10,08,48,21.30
2018,08,10,08,49,21.30
2018,08,10,08,50,21.40
2018,08,10,08,51,21.40
2018,08,10,08,52,21.40
2018,08,10,08,53,21.40
2018,08,10,08,54,21.40
2018,08,10,12,07,26.30
2018,08,10,12,08,26.30
2018,08,10,12,09,26.20
2018,08,10,12,10,26.20
2018,08,10,12,11,26.20
2018,08,10,12,12,26.10
2018,08,10,12,13,26.10
2018,08,10,12,14,26.10
2018,08,10,12,15,26.00
2018,08,10,12,16,26.00
2018,08,10,12,17,25.90
2018,08,10,12,18,25.80
2018,08,10,12,19,25.70
2018,08,10,12,20,25.70
2018,08,10,12,21,25.60
2018,08,10,12,22,25.60
2018,08,10,12,23,25.60
2018,08,10,12,24,25.50
2018,08,10,12,25,25.50
2018,08,10,12,26,25.40
2018,08,10,12,27,25.40
2018,08,10,12,28,25.40
2018,08,10,12,29,25.40
2018,08,10,12,30,25.50
2018,08,10,12,31,25.50
2018,08,10,12,32,25.50
2018,08,10,12,33,25.40
2018,08,10,12,34,25.40
2018,08,10,12,35,25.40
2018,08,10,12,36,25.40
2018,08,10,12,37,25.40
2018,08,10,12,38,25.40
2018,08,10,12,39,25.40
2018,08,10,12,40,25.40
2018,08,10,12,41,25.50
2018,08,10,12,42,25.60
2018,08,10,12,43,25.70
2018,08,10,12,44,25.70
2018,08,10,12,45,25.70
2018,08,10,12,46,25.70
2018,08,10,12,47,25.70
2018,08,10,12,48,25.70
2018,08,10,12,49,25.70
2018,08,10,12,50,25.70
2018,08,10,12,51,25.70
2018,08,10,12,52,25.70
2018,08,10,12,53,25.70
2018,08,10,12,54,25.70
2018,08,10,12,55,25.70
2018,08,10,12,56,25.80
2018,08,10,12,57,25.90
2018,08,10,12,58,26.00
2018,08,10,12,59,26.00
2018,08,10,13,00,26.10
2018,08,10,13,01,26.10
2018,08,10,13,02,26.20
2018,08,10,13,03,26.30
2018,08,10,13,04,26.30
2018,08,10,13,05,26.30
2018,08,10,13,06,26.30
2018,08,10,13,07,26.30
2018,08,10,13,08,26.20
2018,08,10,13,09,26.20
2018,08,10,13,10,26.10
2018,08,10,13,11,26.10
2018,08,10,13,12,26.10
2018,08,10,13,13,26.00
2018,08,10,13,14,25.90
2018,08,10,13,15,25.90
2018,08,10,13,16,25.80
2018,08,10,13,17,25.80
2018,08,10,13,18,25.80
2018,08,10,13,19,25.80
2018,08,10,13,20,25.80
2018,08,10,13,21,25.80
2018,08,10,13,22,25.70
2018,08,10,13,23,25.70
2018,08,10,13,24,25.80
2018,08,10,13,25,25.80
2018,08,10,13,26,25.80
2018,08,10,13,27,25.90
2018,08,10,13,28,25.90
2018,08,10,13,29,25.90
2018,08,10,13,30,25.90
2018,08,10,13,31,26.00
2018,08,10,13,32,26.10
2018,08,10,13,33,26.10
2018,08,10,13,34,26.10
2018,08,10,13,35,26.10
2018,08,10,13,36,26.10
2018,08,10,13,37,26.10
2018,08,10,13,38,26.20
2018,08,10,13,39,26.20
2018,08,10,13,40,26.20
2018,08,10,13,41,26.20
2018,08,10,13,42,26.20
2018,08,10,13,43,26.20
2018,08,10,13,44,26.20
2018,08,10,13,45,26.20
2018,08,10,13,46,26.30
2018,08,10,13,47,26.30
2018,08,10,13,48,26.30
2018,08,10,13,49,26.30
2018,08,10,13,50,26.30
2018,08,10,13,51,26.20
2018,08,10,13,52,26.30
2018,08,10,13,53,26.20
2018,08,10,13,54,26.20
2018,08,10,13,55,26.10
2018,08,10,13,56,26.00
2018,08,10,13,57,26.00
2018,08,10,13,58,25.90
2018,08,10,13,59,25.90
2018,08,10,14,00,25.90
2018,08,10,14,01,25.90
2018,08,10,14,02,25.90
2018,08,10,14,03,25.90
2018,08,10,14,04,25.90
2018,08,10,14,05,26.00
2018,08,10,14,06,26.10
2018,08,10,14,07,26.10
2018,08,10,14,08,26.10
2018,08,10,14,09,26.10
2018,08,10,14,10,26.10
2018,08,10,14,11,26.10
2018,08,10,14,12,26.10
2018,08,10,14,13,26.10
2018,08,10,14,14,26.20
2018,08,10,14,15,26.10
2018,08,10,14,16,26.10
2018,08,10,14,17,26.10
2018,08,10,14,18,26.10
2018,08,10,14,19,26.10
2018,08,10,14,20,26.20
2018,08,10,14,21,26.30
2018,08,10,14,22,26.30
2018,08,10,14,23,26.30
2018,08,10,14,24,26.30
2018,08,10,14,25,26.30
2018,08,10,14,26,26.40
2018,08,10,14,27,26.40
2018,08,10,14,28,26.40
2018,08,10,14,29,26.40
2018,08,10,14,30,26.40
2018,08,10,14,31,26.30
2018,08,10,14,32,26.20
2018,08,10,14,33,26.10
2018,08,10,14,34,26.00
2018,08,10,14,35,25.90
2018,08,10,14,36,25.90
2018,08,10,14,37,25.80
2018,08,10,14,38,25.80
2018,08,10,14,39,25.80
2018,08,10,14,40,25.80
2018,08,10,14,41,25.90
2018,08,10,14,42,25.90
2018,08,10,14,43,25.90
2018,08,10,14,44,25.90
2018,08,10,14,45,25.90
2018,08,10,14,46,25.90
2018,08,10,14,47,25.90
2018,08,10,14,48,25.90
2018,08,10,14,49,26.00
2018,08,10,14,50,26.00
2018,08,10,14,51,26.10
2018,08,10,14,52,26.10
2018,08,10,14,53,26.10
2018,08,10,14,54,26.10
2018,08,10,14,55,26.10
2018,08,10,14,56,26.10
2018,08,10,14,57,26.10
2018,08,10,14,58,26.10
2018,08,10,14,59,26.10
2018,08,10,15,00,26.10
2018,08,10,15,01,26.20
2018,08,10,15,02,26.30
2018,08,10,15,03,26.30
2018,08,10,15,04,26.30
2018,08,10,15,05,26.30
2018,08,10,15,06,26.30
2018,08,10,15,07,26.30
2018,08,10,15,08,26.30
2018,08,10,15,09,26.30
2018,08,10,15,10,26.40
2018,08,10,15,11,26.50
2018,08,10,15,12,26.60
2018,08,10,15,13,26.70
2018,08,10,15,14,26.80
2018,08,10,15,15,26.80
2018,08,10,15,16,26.80
2018,08,10,15,17,26.80
2018,08,10,15,18,26.80
2018,08,10,15,19,26.80
2018,08,10,15,20,26.70
2018,08,10,15,21,26.60
2018,08,10,15,22,26.60
2018,08,10,15,23,26.60
2018,08,10,15,24,26.70
2018,08,10,15,25,26.70
2018,08,10,15,26,26.80
2018,08,10,15,27,26.90
2018,08,10,15,28,27.00
2018,08,10,15,29,27.10
2018,08,10,15,30,27.20
2018,08,10,15,31,27.20
2018,08,10,15,32,27.20
2018,08,10,15,33,27.20
2018,08,10,15,34,27.20
2018,08,10,15,35,27.20
2018,08,10,15,36,27.20
2018,08,10,15,37,27.20
2018,08,10,15,38,27.10
2018,08,10,15,39,27.00
2018,08,10,15,40,26.90
2018,08,10,15,41,26.90
2018,08,10,15,42,26.90
2018,08,10,15,43,26.90
2018,08,10,15,44,26.90
2018,08,10,15,45,26.90
2018,08,10,15,46,27.00
2018,08,10,15,47,27.00
2018,08,10,15,48,27.10
2018,08,10,15,49,27.10
2018,08,10,15,50,27.20
2018,08,10,15,51,27.20
2018,08,10,15,52,27.20
2018,08,10,15,53,27.10
2018,08,10,15,54,27.00
2018,08,10,15,55,27.00
2018,08,10,15,56,26.90
2018,08,10,15,57,26.90
2018,08,10,15,58,26.90
2018,08,10,15,59,26.90
2018,08,10,16,00,26.90
2018,08,10,16,01,27.00
2018,08,10,16,02,27.10
2018,08,10,16,03,27.20
2018,08,10,16,04,27.20
2018,08,10,16,05,27.30
2018,08,10,16,06,27.30
2018,08,10,16,07,27.20
2018,08,10,16,08,27.20
2018,08,10,16,09,27.20
2018,08,10,16,10,27.10
2018,08,10,16,11,27.10
2018,08,10,16,12,27.10
2018,08,10,16,13,27.10
2018,08,10,16,14,27.10
2018,08,10,16,15,27.20
2018,08,10,16,16,27.20
2018,08,10,16,17,27.20
2018,08,10,16,18,27.20
2018,08,10,16,19,27.20
2018,08,10,16,20,27.20
2018,08,10,16,21,27.20
2018,08,10,16,22,27.20
2018,08,10,16,23,27.10
2018,08,10,16,24,27.10
2018,08,10,16,25,27.20
2018,08,10,16,26,27.20
2018,08,10,16,27,27.30
2018,08,10,16,28,27.30
2018,08,10,16,29,27.40
2018,08,10,16,30,27.40
2018,08,10,16,31,27.40
2018,08,10,16,32,27.40
2018,08,10,16,33,27.30
2018,08,10,16,34,27.30
2018,08,10,16,35,27.30
2018,08,10,16,36,27.30
2018,08,10,16,37,27.30
2018,08,10,16,38,27.30
2018,08,10,16,39,27.30
2018,08,10,16,40,27.30
2018,08,10,16,41,27.30
2018,08,10,16,42,27.30
2018,08,10,16,43,27.20
2018,08,10,16,44,27.30
2018,08,10,16,45,27.30
2018,08,10,16,46,27.40
2018,08,10,16,47,27.40
2018,08,10,16,48,27.40
2018,08,10,16,49,27.40
2018,08,10,16,50,27.30
2018,08,10,16,51,27.30
2018,08,10,16,52,27.30
2018,08,10,16,53,27.30
2018,08,10,16,54,27.40
2018,08,10,16,55,27.40
2018,08,10,16,56,27.40
2018,08,10,16,57,27.50
2018,08,10,16,58,27.60
2018,08,10,16,59,27.70
2018,08,10,17,00,27.70
2018,08,10,17,01,27.70
2018,08,10,17,02,27.80
2018,08,10,17,03,27.80
2018,08,10,17,04,27.80
2018,08,10,17,05,27.90
2018,08,10,17,06,27.90
2018,08,10,17,07,28.00
2018,08,10,17,08,28.10
2018,08,10,17,09,28.20
2018,08,10,17,10,28.30
2018,08,10,17,11,28.30
2018,08,10,17,12,28.30
2018,08,10,17,13,28.30
2018,08,10,17,14,28.20
2018,08,10,17,15,28.10
2018,08,10,17,16,28.00
2018,08,10,17,17,27.90
2018,08,10,17,18,27.80
2018,08,10,17,19,27.70
2018,08,10,17,20,27.70
2018,08,10,17,21,27.60
2018,08,10,17,22,27.60
2018,08,10,17,23,27.50
2018,08,10,17,24,27.50
2018,08,10,17,25,27.40
2018,08,10,17,26,27.30
2018,08,10,17,27,27.30
2018,08,10,17,28,27.30
2018,08,10,17,29,27.30
2018,08,10,17,30,27.30
2018,08,10,17,31,27.20
2018,08,10,17,32,27.10
2018,08,10,17,33,27.00
2018,08,10,17,34,26.90
2018,08,10,17,35,26.90
2018,08,10,17,36,26.80
2018,08,10,17,37,26.70
2018,08,10,17,38,26.60
2018,08,10,17,39,26.50
2018,08,10,17,40,26.40
2018,08,10,17,41,26.30
2018,08,10,17,42,26.30
2018,08,10,17,43,26.20
2018,08,10,17,44,26.10
2018,08,10,17,45,26.00
2018,08,10,17,46,25.90
2018,08,10,17,47,25.90
2018,08,10,17,48,25.80
2018,08,10,17,49,25.70
2018,08,10,17,50,25.80
2018,08,10,17,51,25.80
2018,08,10,17,52,25.90
2018,08,10,17,53,25.90
2018,08,10,17,54,25.90
2018,08,10,17,55,25.90
2018,08,10,17,56,26.00
2018,08,10,17,57,26.00
2018,08,10,17,58,26.00
2018,08,10,17,59,26.00
2018,08,10,18,00,26.10
2018,08,10,18,01,26.10
2018,08,10,18,02,26.20
2018,08,10,18,03,26.20
2018,08,10,18,04,26.20
2018,08,10,18,05,26.20
2018,08,10,18,06,26.20
2018,08,10,18,07,26.20
2018,08,10,18,08,26.30
2018,08,10,18,09,26.30
2018,08,10,18,10,26.30
2018,08,10,18,11,26.40
2018,08,10,18,12,26.40
2018,08,10,18,13,26.40
2018,08,10,18,14,26.40
2018,08,10,18,15,26.50
2018,08,10,18,16,26.60
2018,08,10,18,17,26.60
2018,08,10,18,18,26.60
2018,08,10,18,19,26.60
2018,08,10,18,20,26.60
2018,08,10,18,21,26.60
2018,08,10,18,22,26.60
2018,08,10,18,23,26.60
2018,08,10,18,24,26.60
2018,08,10,18,25,26.60
2018,08,10,18,26,26.60
2018,08,10,18,27,26.60
2018,08,10,18,28,26.60
2018,08,10,18,29,26.70
2018,08,10,18,30,26.70
2018,08,10,18,31,26.70
2018,08,10,18,32,26.70
2018,08,10,18,33,26.70
2018,08,10,18,34,26.60
2018,08,10,18,35,26.60
2018,08,10,18,36,26.60
2018,08,10,18,37,26.60
2018,08,10,18,38,26.50
2018,08,10,18,39,26.50
2018,08,10,18,40,26.50
2018,08,10,18,41,26.40
2018,08,10,18,42,26.40
2018,08,10,18,43,26.40
2018,08,10,18,44,26.40
2018,08,10,18,45,26.40
2018,08,10,18,46,26.40
2018,08,10,18,47,26.50
2018,08,10,18,48,26.50
2018,08,10,18,49,26.50
2018,08,10,18,50,26.50
2018,08,10,18,51,26.50
2018,08,10,18,52,26.50
2018,08,10,18,53,26.60
2018,08,10,18,54,26.70
2018,08,10,18,55,26.80
2018,08,10,18,56,26.80
2018,08,10,18,57,26.80
2018,08,10,18,58,26.90
2018,08,10,18,59,27.00
2018,08,10,19,00,27.10
2018,08,10,19,01,27.10
2018,08,10,19,02,27.20
2018,08,10,19,03,27.30
2018,08,10,19,04,27.30
2018,08,10,19,05,27.40
2018,08,10,19,06,27.40
2018,08,10,19,07,27.40
2018,08,10,19,08,27.40
2018,08,10,19,09,27.40
2018,08,10,19,10,27.40
2018,08,10,19,11,27.40
2018,08,10,19,12,27.40
2018,08,10,19,13,27.40
2018,08,10,19,14,27.50
2018,08,10,19,15,27.50
2018,08,10,19,16,27.50
2018,08,10,19,17,27.60
2018,08,10,19,18,27.60
2018,08,10,19,19,27.60
2018,08,10,19,20,27.50
2018,08,10,19,21,27.50
2018,08,10,19,22,27.40
2018,08,10,19,23,27.40
2018,08,10,19,24,27.40
2018,08,10,19,25,27.30
2018,08,10,19,26,27.30
2018,08,10,19,27,27.30
2018,08,10,19,28,27.20
2018,08,10,19,29,27.10
2018,08,10,19,30,27.00
2018,08,10,19,31,27.00
2018,08,10,19,32,26.90
2018,08,10,19,33,26.90
2018,08,10,19,34,26.80
2018,08,10,19,35,26.70
2018,08,10,19,36,26.60
2018,08,10,19,37,26.60
2018,08,10,19,38,26.50
2018,08,10,19,39,26.40
2018,08,10,19,40,26.30
2018,08,10,19,41,26.20
2018,08,10,19,42,26.10
2018,08,10,19,43,26.10
2018,08,10,19,44,26.00
2018,08,10,19,45,25.90
2018,08,10,19,46,25.90
2018,08,10,19,47,25.80
2018,08,10,19,48,25.80
2018,08,10,19,49,25.70
2018,08,10,19,50,25.60
2018,08,10,19,51,25.60
2018,08,10,19,52,25.50
2018,08,10,19,53,25.50
2018,08,10,19,54,25.40
2018,08,10,19,55,25.40
2018,08,10,19,56,25.30
2018,08,10,19,57,25.30
2018,08,10,19,58,25.20
2018,08,10,19,59,25.10
2018,08,10,20,00,25.10
2018,08,10,20,01,25.10
2018,08,10,20,02,25.00
2018,08,10,20,03,24.90
2018,08,10,20,04,24.90
2018,08,10,20,05,24.90
2018,08,10,20,06,24.80
2018,08,10,20,07,24.80
2018,08,10,20,08,24.80
2018,08,10,20,09,24.70
2018,08,10,20,10,24.70
2018,08,10,20,11,24.60
2018,08,10,20,12,24.60
2018,08,10,20,13,24.60
2018,08,10,20,14,24.50
2018,08,10,20,15,24.50
2018,08,10,20,16,24.50
2018,08,10,20,17,24.40
2018,08,10,20,18,24.40
2018,08,10,20,19,24.40
2018,08,10,20,20,24.30
2018,08,10,20,21,24.30
2018,08,10,20,22,24.30
2018,08,10,20,23,24.20
2018,08,10,20,24,24.20
2018,08,10,20,25,24.20
2018,08,10,20,26,24.20
2018,08,10,20,27,24.20
2018,08,10,20,28,24.10
2018,08,10,20,29,24.10
2018,08,10,20,30,24.10
2018,08,10,20,31,24.10